This is the latest recevied weather packets stored in our database for station/object AD0YN. If no packets are shown the sender has not sent any weather packets the latest 10 day(s).
| Time | Temp. | Humidity | Pressure | Rain* | Wind** | Luminosity | Snow |
|---|---|---|---|---|---|---|---|
| 1777947247 | 22.22° C | 53% | 1001.8 hPa | 0 mm | - | 0 W/m² | - |
| 1777946943 | 22.22° C | 52% | 1001.6 hPa | 0 mm | - | 0 W/m² | - |
| 1777946638 | 22.22° C | 52% | 1001.5 hPa | 0 mm | - | 0 W/m² | - |
| 1777946336 | 22.22° C | 51% | 1001.6 hPa | 0 mm | - | 0 W/m² | - |
| 1777946033 | 22.78° C | 51% | 1001.3 hPa | 0 mm | - | 0 W/m² | - |
| 1777945730 | 22.78° C | 51% | 1001.3 hPa | 0 mm | - | 0 W/m² | - |
| 1777945427 | 22.78° C | 51% | 1001.2 hPa | 0 mm | - | 0 W/m² | - |
| 1777945124 | 23.33° C | 50% | 1001.2 hPa | 0 mm | - | 0 W/m² | - |
| 1777944821 | 23.33° C | 50% | 1001 hPa | 0 mm | - | 0 W/m² | - |
| 1777944519 | 23.33° C | 49% | 1001 hPa | 0 mm | - | 0 W/m² | - |
| 1777944217 | 23.89° C | 48% | 1001 hPa | 0 mm | - | 1 W/m² | - |
| 1777943912 | 23.89° C | 48% | 1000.8 hPa | 0 mm | - | 1 W/m² | - |
| 1777943610 | 24.44° C | 46% | 1000.8 hPa | 0 mm | - | 3 W/m² | - |
| 1777943305 | 24.44° C | 44% | 1000.8 hPa | 0 mm | - | 4 W/m² | - |
| 1777943001 | 23.89° C | 44% | 1001 hPa | 0 mm | - | 7 W/m² | - |
| 1777942698 | 23.89° C | 45% | 1000.7 hPa | 0 mm | - | 10 W/m² | - |
| 1777942395 | 23.89° C | 45% | 1000.4 hPa | 0 mm | - | 14 W/m² | - |
| 1777942092 | 23.89° C | 46% | 1000.3 hPa | 0 mm | - | 21 W/m² | - |
| 1777941788 | 25° C | 44% | 1000.5 hPa | 0 mm | - | 28 W/m² | - |
| 1777941486 | 25° C | 41% | 1000.3 hPa | 0 mm | - | 34 W/m² | - |
| 1777941183 | 25° C | 41% | 1000.4 hPa | 0 mm | - | 45 W/m² | - |
| 1777940879 | 25° C | 41% | 1000.3 hPa | 0 mm | - | 51 W/m² | - |
| 1777940576 | 25° C | 42% | 1000.4 hPa | 0 mm | - | 57 W/m² | - |
| 1777940274 | 25.56° C | 40% | 1000.5 hPa | 0 mm | - | 51 W/m² | - |
| 1777939971 | 25.56° C | 40% | 1000.6 hPa | 0 mm | - | 53 W/m² | - |
* Rain latest hour (hover to see other rain measurements)
** Current wind speed in m/s (hover to see current wind gust speed)